| time (UTC) | temp F | wind direction | speed MPH | gust MPH | rain 1hr in | rain 24hr in | rain mn in | humidity % | barometer mb |
| 20260508064530 | 78 | 319 | 0.0 | 0.0 | 0.00 | 0.01 | 0.00 | 100 | 1008.4 |
| 20260508063027 | 78 | 318 | 0.0 | 0.0 | 0.00 | 0.01 | 0.00 | 100 | 1008.7 |
| 20260508061531 | 78 | 318 | 0.0 | 0.0 | 0.00 | 0.01 | 0.00 | 100 | 1009.0 |
| 20260508060022 | 78 | 318 | 0.0 | 0.0 | 0.00 | 0.01 | 0.00 | 100 | 1009.1 |
| 20260508054519 | 78 | 288 | 0.0 | 0.0 | 0.00 | 0.01 | 0.01 | 100 | 1009.2 |
| 20260508053021 | 78 | 288 | 0.0 | 0.0 | 0.01 | 0.01 | 0.01 | 100 | 1009.4 |
| 20260508051519 | 78 | 327 | 0.0 | 0.0 | 0.01 | 0.01 | 0.01 | 100 | 1009.7 |
| 20260508050034 | 78 | 317 | 0.0 | 0.0 | 0.01 | 0.01 | 0.01 | 100 | 1009.8 |
| 20260508044517 | 79 | 319 | 0.0 | 0.0 | 0.01 | 0.01 | 0.01 | 100 | 1009.9 |
| 20260508043018 | 79 | 305 | 0.0 | 0.0 | 0.00 | 0.00 | 0.00 | 100 | 1009.8 |
| 20260508041520 | 79 | 269 | 0.0 | 0.0 | 0.00 | 0.00 | 0.00 | 100 | 1009.8 |
| 20260508040016 | 79 | 269 | 0.0 | 0.0 | 0.00 | 0.00 | 0.00 | 99 | 1009.8 |
| 20260508034516 | 79 | 202 | 0.0 | 4.0 | 0.00 | 0.00 | 0.00 | 99 | 1009.8 |
| 20260508033015 | 79 | 179 | 1.0 | 3.0 | 0.00 | 0.00 | 0.00 | 99 | 1009.8 |
| 20260508031514 | 79 | 269 | 0.0 | 0.0 | 0.00 | 0.00 | 0.00 | 99 | 1009.7 |
| 20260508030014 | 79 | 272 | 0.0 | 0.0 | 0.00 | 0.00 | 0.00 | 99 | 1009.6 |
| 20260508024532 | 79 | 281 | 0.0 | 2.0 | 0.00 | 0.00 | 0.00 | 99 | 1009.5 |
| 20260508023013 | 79 | 300 | 0.0 | 0.0 | 0.00 | 0.00 | 0.00 | 100 | 1009.4 |
| 20260508021511 | 79 | 307 | 0.0 | 0.0 | 0.00 | 0.00 | 0.00 | 100 | 1009.3 |
| 20260508020011 | 79 | 307 | 0.0 | 0.0 | 0.00 | 0.00 | 0.00 | 100 | 1009.2 |
| 20260508014510 | 79 | 346 | 0.0 | 0.0 | 0.00 | 0.00 | 0.00 | 100 | 1009.2 |
| 20260508013013 | 79 | 48 | 0.0 | 2.0 | 0.00 | 0.00 | 0.00 | 100 | 1009.3 |
| 20260508011509 | 79 | 26 | 0.0 | 2.0 | 0.00 | 0.00 | 0.00 | 99 | 1009.1 |
| 20260508010011 | 80 | 304 | 0.0 | 0.0 | 0.00 | 0.00 | 0.00 | 98 | 1009.0 |
| 20260508004514 | 80 | 142 | 0.0 | 0.0 | 0.00 | 0.00 | 0.00 | 97 | 1008.8 |
| 20260508003008 | 80 | 142 | 0.0 | 0.0 | 0.00 | 0.00 | 0.00 | 98 | 1008.7 |
| 20260508001521 | 80 | 142 | 0.0 | 0.0 | 0.00 | 0.00 | 0.00 | 98 | 1008.6 |
| 20260508000006 | 80 | 174 | 0.0 | 4.0 | 0.00 | 0.00 | 0.00 | 98 | 1008.3 |
| 20260507234504 | 80 | 274 | 2.0 | 4.0 | 0.00 | 0.00 | 0.00 | 97 | 1008.2 |
| 20260507233005 | 80 | 226 | 1.0 | 4.0 | 0.00 | 0.00 | 0.00 | 97 | 1008.1 |
| 20260507231504 | 80 | 212 | 2.0 | 7.0 | 0.00 | 0.00 | 0.00 | 97 | 1007.8 |
| 20260507230004 | 80 | 209 | 0.0 | 6.0 | 0.00 | 0.00 | 0.00 | 97 | 1007.8 |
| 20260507224503 | 80 | 167 | 4.0 | 7.0 | 0.00 | 0.00 | 0.00 | 97 | 1007.7 |
| 20260507223003 | 81 | 195 | 2.0 | 6.0 | 0.00 | 0.00 | 0.00 | 97 | 1007.6 |
| 20260507221502 | 81 | 243 | 3.0 | 8.0 | 0.00 | 0.00 | 0.00 | 96 | 1007.4 |
| 20260507220004 | 81 | 225 | 4.0 | 11.0 | 0.00 | 0.00 | 0.00 | 96 | 1007.3 |
| 20260507214600 | 81 | 231 | 6.0 | 10.0 | 0.00 | 0.00 | 0.00 | 95 | 1007.3 |
| 20260507213059 | 81 | 248 | 9.0 | 13.0 | 0.00 | 0.00 | 0.00 | 96 | 1007.3 |
| 20260507211604 | 82 | 219 | 8.0 | 14.0 | 0.00 | 0.00 | 0.00 | 95 | 1007.2 |
| 20260507210110 | 82 | 207 | 9.0 | 13.0 | 0.00 | 0.00 | 0.00 | 95 | 1007.4 |
| 20260507204554 | 82 | 227 | 6.0 | 14.0 | 0.00 | 0.00 | 0.00 | 95 | 1007.5 |
| 20260507203117 | 82 | 243 | 9.0 | 14.0 | 0.00 | 0.00 | 0.00 | 94 | 1007.6 |
| 20260507201553 | 82 | 215 | 8.0 | 14.0 | 0.00 | 0.00 | 0.00 | 94 | 1007.8 |
| 20260507200052 | 82 | 235 | 7.0 | 13.0 | 0.00 | 0.00 | 0.00 | 94 | 1008.0 |
| 20260507194601 | 82 | 207 | 9.0 | 13.0 | 0.00 | 0.00 | 0.00 | 92 | 1008.1 |
| 20260507193045 | 83 | 205 | 8.0 | 14.0 | 0.00 | 0.00 | 0.00 | 93 | 1008.4 |
| 20260507191546 | 83 | 226 | 9.0 | 16.0 | 0.00 | 0.00 | 0.00 | 91 | 1008.5 |
| 20260507190052 | 82 | 232 | 9.0 | 15.0 | 0.00 | 0.00 | 0.00 | 93 | 1008.6 |
| 20260507184540 | 82 | 184 | 8.0 | 15.0 | 0.00 | 0.00 | 0.00 | 94 | 1008.8 |
| 20260507183040 | 83 | 233 | 11.0 | 16.0 | 0.00 | 0.00 | 0.00 | 92 | 1009.0 |
| 20260507181541 | 83 | 217 | 8.0 | 15.0 | 0.00 | 0.00 | 0.00 | 92 | 1009.3 |
| 20260507180041 | 83 | 245 | 9.0 | 16.0 | 0.00 | 0.00 | 0.00 | 93 | 1009.7 |
| 20260507174543 | 83 | 226 | 11.0 | 17.0 | 0.00 | 0.00 | 0.00 | 93 | 1009.7 |
| 20260507173103 | 83 | 241 | 10.0 | 15.0 | 0.00 | 0.00 | 0.00 | 93 | 1010.1 |
| 20260507171540 | 83 | 204 | 9.0 | 14.0 | 0.00 | 0.00 | 0.00 | 92 | 1010.3 |
| 20260507170038 | 83 | 258 | 9.0 | 15.0 | 0.00 | 0.00 | 0.00 | 92 | 1010.4 |
| 20260507164535 | 82 | 231 | 10.0 | 15.0 | 0.00 | 0.00 | 0.00 | 93 | 1010.6 |
| 20260507163035 | 83 | 209 | 9.0 | 15.0 | 0.00 | 0.00 | 0.00 | 93 | 1010.7 |
| 20260507161540 | 82 | 238 | 9.0 | 13.0 | 0.00 | 0.00 | 0.00 | 94 | 1010.8 |
| 20260507160032 | 83 | 203 | 8.0 | 12.0 | 0.00 | 0.00 | 0.00 | 93 | 1010.9 |
| 20260507154528 | 82 | 194 | 5.0 | 11.0 | 0.00 | 0.00 | 0.00 | 92 | 1011.0 |
| 20260507153027 | 82 | 212 | 6.0 | 11.0 | 0.00 | 0.00 | 0.00 | 95 | 1011.1 |
| 20260507151528 | 82 | 243 | 7.0 | 12.0 | 0.00 | 0.00 | 0.00 | 94 | 1011.1 |
| 20260507150036 | 81 | 195 | 6.0 | 12.0 | 0.00 | 0.00 | 0.00 | 94 | 1011.1 |
| 20260507144525 | 81 | 209 | 5.0 | 11.0 | 0.00 | 0.00 | 0.00 | 96 | 1011.2 |
| 20260507143022 | 81 | 297 | 5.0 | 11.0 | 0.00 | 0.00 | 0.00 | 95 | 1011.1 |
| 20260507141521 | 81 | 241 | 6.0 | 12.0 | 0.00 | 0.00 | 0.00 | 96 | 1011.1 |
| 20260507140018 | 80 | 252 | 6.0 | 10.0 | 0.00 | 0.00 | 0.00 | 98 | 1011.0 |
| 20260507134516 | 79 | 216 | 4.0 | 8.0 | 0.00 | 0.00 | 0.00 | 98 | 1010.8 |
| 20260507133019 | 79 | 290 | 2.0 | 4.0 | 0.00 | 0.00 | 0.00 | 99 | 1010.7 |
| 20260507131516 | 78 | 316 | 0.0 | 0.0 | 0.00 | 0.00 | 0.00 | 100 | 1010.5 |
| 20260507130010 | 78 | 295 | 0.0 | 0.0 | 0.00 | 0.00 | 0.00 | 100 | 1010.2 |
| 20260507124508 | 76 | 298 | 2.0 | 5.0 | 0.00 | 0.00 | 0.00 | 100 | 1009.8 |
| 20260507123007 | 76 | 294 | 0.0 | 0.0 | 0.00 | 0.00 | 0.00 | 100 | 1009.7 |
| 20260507121506 | 76 | 295 | 0.0 | 0.0 | 0.00 | 0.00 | 0.00 | 100 | 1009.6 |
| 20260507120006 | 75 | 286 | 1.0 | 3.0 | 0.00 | 0.00 | 0.00 | 100 | 1009.4 |
| 20260507114504 | 75 | 302 | 0.0 | 3.0 | 0.00 | 0.00 | 0.00 | 100 | 1009.3 |
| 20260507113010 | 75 | 275 | 0.0 | 3.0 | 0.00 | 0.00 | 0.00 | 100 | 1009.4 |
| 20260507111503 | 76 | 305 | 3.0 | 4.0 | 0.00 | 0.00 | 0.00 | 100 | 1009.1 |
| 20260507110002 | 76 | 298 | 2.0 | 3.0 | 0.00 | 0.00 | 0.00 | 100 | 1009.0 |
| 20260507104604 | 76 | 311 | 2.0 | 4.0 | 0.00 | 0.00 | 0.00 | 100 | 1009.1 |
| 20260507103100 | 76 | 297 | 3.0 | 4.0 | 0.00 | 0.00 | 0.00 | 100 | 1008.8 |
| 20260507101559 | 76 | 313 | 1.0 | 4.0 | 0.00 | 0.00 | 0.00 | 100 | 1008.9 |
| 20260507100056 | 76 | 319 | 2.0 | 4.0 | 0.00 | 0.00 | 0.00 | 100 | 1008.9 |
| 20260507094600 | 76 | 308 | 2.0 | 3.0 | 0.00 | 0.00 | 0.00 | 100 | 1009.0 |
| 20260507093054 | 76 | 315 | 1.0 | 3.0 | 0.00 | 0.00 | 0.00 | 100 | 1009.0 |
| 20260507091553 | 76 | 301 | 2.0 | 3.0 | 0.00 | 0.00 | 0.00 | 100 | 1008.9 |
| 20260507090049 | 76 | 315 | 2.0 | 3.0 | 0.00 | 0.00 | 0.00 | 100 | 1009.2 |
| 20260507084547 | 76 | 308 | 2.0 | 3.0 | 0.00 | 0.00 | 0.00 | 100 | 1009.4 |
| 20260507083045 | 76 | 312 | 0.0 | 0.0 | 0.00 | 0.00 | 0.00 | 100 | 1009.6 |
| 20260507081544 | 76 | 294 | 0.0 | 0.0 | 0.00 | 0.00 | 0.00 | 100 | 1009.8 |
| 20260507080044 | 77 | 319 | 0.0 | 0.0 | 0.00 | 0.00 | 0.00 | 100 | 1010.1 |
| 20260507074546 | 77 | 317 | 1.0 | 3.0 | 0.00 | 0.00 | 0.00 | 100 | 1010.2 |
| 20260507073045 | 77 | 295 | 2.0 | 3.0 | 0.00 | 0.00 | 0.00 | 100 | 1010.5 |
| 20260507071537 | 76 | 311 | 2.0 | 3.0 | 0.00 | 0.00 | 0.00 | 100 | 1010.7 |
| 20260507070044 | 76 | 304 | 1.0 | 4.0 | 0.00 | 0.00 | 0.00 | 100 | 1010.8 |